| time (UTC) | temp C | wind direction | speed KPH | gust KPH | rain 1hr cm | rain 24hr cm | rain mn cm | humidity % | barometer mb |
| 20260504080332 | 11 | 0 | 0.0 | 1.6 | 0.00 | 0.00 | 0.00 | 72 | 1002.9 |
| 20260504050107 | 14 | 0 | 0.0 | 4.8 | 0.00 | 0.00 | 0.00 | 64 | 1004.5 |
| 20260504044602 | 14 | 301 | 0.0 | 3.2 | 0.00 | 0.00 | 0.00 | 64 | 1004.4 |
| 20260504043107 | 14 | 0 | 0.0 | 4.8 | 0.00 | 0.00 | 0.00 | 63 | 1004.4 |
| 20260504041601 | 15 | 0 | 0.0 | 0.0 | 0.00 | 0.00 | 0.00 | 63 | 1004.5 |
| 20260504034555 | 15 | 302 | 0.0 | 1.6 | 0.00 | 0.00 | 0.00 | 62 | 1004.8 |
| 20260504033058 | 15 | 0 | 0.0 | 1.6 | 0.00 | 0.00 | 0.00 | 61 | 1004.9 |
| 20260504031558 | 15 | 0 | 0.0 | 3.2 | 0.00 | 0.00 | 0.00 | 60 | 1005.1 |
| 20260504030058 | 15 | 302 | 0.0 | 3.2 | 0.00 | 0.00 | 0.00 | 59 | 1005.1 |
| 20260504024615 | 16 | 0 | 0.0 | 1.6 | 0.00 | 0.00 | 0.00 | 59 | 1005.1 |
| 20260504023055 | 16 | 0 | 0.0 | 1.6 | 0.00 | 0.00 | 0.00 | 58 | 1005.2 |
| 20260504021557 | 16 | 0 | 0.0 | 0.0 | 0.00 | 0.00 | 0.00 | 57 | 1005.1 |
| 20260504020055 | 16 | 0 | 0.0 | 0.0 | 0.00 | 0.00 | 0.00 | 55 | 1005.1 |
| 20260504014605 | 16 | 0 | 0.0 | 0.0 | 0.00 | 0.00 | 0.00 | 53 | 1004.9 |
| 20260504013101 | 17 | 0 | 0.0 | 0.0 | 0.00 | 0.00 | 0.00 | 51 | 1004.6 |
| 20260504011604 | 17 | 0 | 0.0 | 0.0 | 0.00 | 0.00 | 0.00 | 50 | 1004.6 |
| 20260504010109 | 18 | 0 | 0.0 | 1.6 | 0.00 | 0.00 | 0.00 | 48 | 1004.5 |
| 20260504004601 | 18 | 0 | 0.0 | 4.8 | 0.00 | 0.00 | 0.00 | 47 | 1004.5 |
| 20260504003059 | 19 | 0 | 1.6 | 4.8 | 0.00 | 0.00 | 0.00 | 45 | 1004.6 |
| 20260504001608 | 19 | 0 | 0.0 | 4.8 | 0.00 | 0.00 | 0.00 | 44 | 1004.5 |
| 20260504000139 | 20 | 0 | 0.0 | 16.1 | 0.00 | 0.00 | 0.00 | 45 | 1004.4 |
| 20260503234604 | 20 | 308 | 1.6 | 17.7 | 0.00 | 0.00 | 0.00 | 44 | 1004.4 |
| 20260503233108 | 20 | 305 | 1.6 | 17.7 | 0.00 | 0.00 | 0.00 | 43 | 1004.5 |
| 20260503231558 | 20 | 225 | 3.2 | 16.1 | 0.00 | 0.00 | 0.00 | 43 | 1004.6 |
| 20260503224605 | 20 | 254 | 3.2 | 17.7 | 0.00 | 0.00 | 0.00 | 42 | 1004.8 |
| 20260503223057 | 20 | 301 | 3.2 | 22.5 | 0.00 | 0.00 | 0.00 | 42 | 1005.0 |
| 20260503221559 | 20 | 318 | 4.8 | 17.7 | 0.00 | 0.00 | 0.00 | 41 | 1005.0 |
| 20260503220057 | 20 | 315 | 4.8 | 12.9 | 0.00 | 0.00 | 0.00 | 41 | 1005.2 |
| 20260503214555 | 20 | 277 | 3.2 | 20.9 | 0.00 | 0.00 | 0.00 | 40 | 1005.5 |
| 20260503213055 | 20 | 271 | 8.0 | 30.6 | 0.00 | 0.00 | 0.00 | 40 | 1005.6 |
| 20260503211617 | 18 | 0 | 4.8 | 24.1 | 0.00 | 0.00 | 0.00 | 41 | 1005.8 |
| 20260503210056 | 20 | 301 | 4.8 | 24.1 | 0.00 | 0.00 | 0.00 | 39 | 1006.0 |
| 20260503204555 | 19 | 273 | 8.0 | 22.5 | 0.00 | 0.00 | 0.00 | 42 | 1006.3 |
| 20260503203110 | 18 | 241 | 6.4 | 19.3 | 0.00 | 0.00 | 0.00 | 44 | 1006.8 |
| 20260503201557 | 18 | 304 | 6.4 | 17.7 | 0.00 | 0.00 | 0.00 | 46 | 1007.1 |
| 20260503200058 | 17 | 266 | 6.4 | 20.9 | 0.00 | 0.00 | 0.00 | 47 | 1007.4 |
| 20260503194558 | 17 | 298 | 8.0 | 25.7 | 0.00 | 0.00 | 0.00 | 48 | 1007.4 |
| 20260503193057 | 17 | 238 | 4.8 | 24.1 | 0.00 | 0.00 | 0.00 | 49 | 1007.6 |
| 20260503191555 | 16 | 298 | 6.4 | 27.4 | 0.00 | 0.00 | 0.00 | 48 | 1007.7 |
| 20260503190059 | 16 | 302 | 4.8 | 29.0 | 0.00 | 0.00 | 0.00 | 51 | 1007.7 |
| 20260503184557 | 15 | 227 | 4.8 | 19.3 | 0.00 | 0.00 | 0.00 | 52 | 1008.0 |
| 20260503183058 | 15 | 307 | 3.2 | 27.4 | 0.00 | 0.00 | 0.00 | 53 | 1008.2 |
| 20260503181604 | 15 | 248 | 4.8 | 22.5 | 0.00 | 0.00 | 0.00 | 54 | 1008.6 |
| 20260503180111 | 15 | 240 | 6.4 | 30.6 | 0.00 | 0.00 | 0.00 | 54 | 1009.3 |
| 20260503174555 | 15 | 223 | 3.2 | 25.7 | 0.00 | 0.00 | 0.00 | 56 | 1009.7 |
| 20260503173101 | 13 | 327 | 6.4 | 22.5 | 0.00 | 0.00 | 0.00 | 59 | 1010.2 |
| 20260503171559 | 12 | 236 | 4.8 | 24.1 | 0.00 | 0.00 | 0.00 | 66 | 1010.5 |
| 20260503100103 | 8 | 0 | 0.0 | 6.4 | 0.00 | 0.00 | 0.00 | 57 | 1012.5 |
| 20260503081559 | 8 | 300 | 0.0 | 8.0 | 0.00 | 0.00 | 0.00 | 54 | 1013.2 |